Wind_Gust
13 13 9 12 14 15 16 18 18 21 20 22 21 16 13 11 11 14 12 9 14 13 9 9 12 20 18 15 15 12 17 15 14 18 13 17 14 21 20 25 25 25 24 26 26 26 25 18 15 15 13 13 14 13 13 13 14 16 18 19 21 20 20 21 20 19 19 18 17 17 17 16 15 14 14 14 13 13 12 13 14 15 15 14 16 17 15 14 14 13 13 13 14 14 15 16 15
12 10 11 11 15 18 17 12 22 16 18 22 20 14 14 12 13 13 10 10 15 12 10 12 18 16 9 11 13 13 15 21 20 22 19 18 17 22 23 24 24 25 24 26 25 24 22 23 15 15 14 14 14 13 13 14 13 14 16 19 19 18 18 19 18 18 18 18 17 17 16 15 15 14 13 12 12 11 10 11 13 14 15 14 14 14 13 14 14 14 13 13 14 14 15 15 16
10 13 14 15 16 19 12 17 21 18 21 20 17 12 14 15 14 10 10 11 12 13 12 14 15 15 14 12 18 19 18 15 21 20 23 20 24 23 23 24 23 24 24 25 25 24 22 21 15 15 15 15 15 14 13 14 14 15 16 16 16 17 17 17 18 18 18 17 17 17 17 16 15 14 13 11 9 8 9 11 12 15 15 15 14 14 15 15 14 14 14 13 13 14 15 15 15
12 12 15 16 17 16 19 18 22 22 21 18 18 17 10 11 11 12 8 12 15 12 14 21 20 10 13 19 15 14 17 16 16 20 27 23 23 25 24 24 22 23 23 24 23 24 21 22 15 15 14 15 16 16 15 14 15 16 17 17 17 18 17 17 18 18 18 18 17 17 16 16 15 14 13 12 9 8 8 9 10 12 13 15 15 14 14 14 14 15 14 13 14 13 14 14 14
14 12 15 17 19 19 20 17 19 18 23 19 17 19 11 12 12 11 16 12 12 9 13 13 14 12 14 17 10 17 20 18 16 13 27 22 24 23 25 24 23 23 22 23 25 23 23 19 15 14 14 14 16 16 16 15 15 16 18 19 19 19 17 17 17 17 18 18 17 16 16 15 15 15 14 12 11 10 10 10 9 9 10 10 11 12 13 12 14 14 14 14 14 14 13 14 14
13 14 13 18 17 21 20 18 21 22 18 14 18 16 14 15 16 15 14 11 9 11 8 15 12 19 16 16 16 18 13 15 17 16 24 23 23 24 23 23 24 24 22 21 21 24 25 21 15 14 13 13 14 16 17 16 16 16 17 16 16 17 15 16 15 16 16 16 15 15 15 14 15 15 14 13 12 12 11 10 9 9 10 10 10 11 13 12 13 12 13 14 15 15 14 14 14
16 17 18 18 16 18 20 21 21 16 14 11 14 12 14 15 15 8 13 14 10 10 11 11 11 17 16 18 19 17 10 15 19 21 18 24 23 23 23 24 23 23 21 21 19 23 28 21 19 13 14 13 12 13 15 15 15 14 14 14 15 14 13 14 14 14 16 15 15 15 14 15 15 14 13 13 12 12 12 10 10 10 12 11 12 13 13 12 13 14 15 15 16 16 15 13 13
11 19 16 20 18 19 22 20 20 14 15 13 11 9 12 12 11 10 9 16 18 18 15 11 12 14 18 10 16 13 12 10 17 20 26 23 22 24 22 23 23 23 22 20 19 21 24 19 20 16 15 13 15 14 15 14 14 13 13 13 14 12 13 13 12 12 13 14 16 15 15 14 13 13 13 13 13 12 12 12 12 12 12 12 12 12 13 13 14 16 18 18 18 17 15 13 12
17 20 12 20 20 19 20 20 16 10 15 13 15 13 10 15 15 14 11 11 11 9 16 13 14 17 16 15 17 13 18 16 19 20 24 23 22 24 24 22 24 24 21 21 20 20 21 17 16 16 16 13 13 15 14 15 14 13 14 14 12 12 11 10 11 11 12 12 13 14 14 13 12 12 11 11 11 11 12 12 12 13 12 12 13 13 13 15 16 18 19 18 18 16 15 12 11
17 19 17 22 16 20 20 19 19 14 16 13 13 12 12 12 15 14 15 13 13 12 14 10 12 13 20 17 20 14 19 19 23 22 22 23 22 21 20 20 23 24 22 22 20 21 20 19 13 15 14 15 12 13 13 12 13 12 12 12 10 10 11 10 9 10 10 10 11 12 13 12 12 12 11 12 11 11 12 12 11 12 12 12 14 13 14 15 16 17 17 18 17 15 15 13 11
20 20 14 21 20 21 21 18 14 13 15 14 13 12 11 10 13 16 14 15 10 14 15 13 16 19 16 19 20 14 17 22 23 24 22 23 22 22 22 20 21 20 22 20 19 20 22 22 18 14 15 16 13 11 11 12 12 11 9 9 10 11 11 10 10 9 9 10 11 12 13 12 13 12 11 12 12 11 11 11 10 12 12 12 13 12 13 16 16 16 15 15 13 12 12 13 11
19 19 18 22 22 20 14 16 11 12 14 15 15 11 12 11 12 17 16 19 17 14 16 18 18 20 18 19 20 16 18 20 21 21 21 23 23 21 21 22 20 21 20 19 19 19 21 21 21 19 14 15 14 12 10 12 10 10 10 10 8 10 10 10 10 10 10 9 10 10 11 12 12 11 10 10 10 10 11 11 11 11 13 13 12 11 12 13 14 13 13 12 11 11 12 12 12
21 11 19 21 19 15 11 15 14 12 14 16 13 15 12 12 15 16 17 17 17 19 19 15 21 19 19 18 21 19 20 20 19 20 22 23 23 22 20 21 21 20 19 18 18 20 19 20 22 22 19 17 15 12 16 18 11 9 9 10 9 9 9 9 11 11 10 11 10 10 10 11 12 12 11 10 10 10 10 11 12 12 14 14 14 13 13 13 12 13 14 13 11 11 11 10 9
22 14 15 22 11 17 16 14 11 16 18 16 14 11 11 16 12 14 16 18 17 20 15 18 21 14 18 22 20 23 23 21 21 20 21 22 22 22 20 20 17 17 17 18 19 20 19 18 20 20 23 21 18 15 16 12 8 12 12 7 7 7 8 8 9 9 9 10 9 10 11 12 13 13 13 11 11 9 8 9 10 11 13 14 14 14 14 14 14 13 13 12 11 10 9 9 8
20 11 17 20 16 14 14 20 12 14 14 14 18 10 18 8 12 12 15 17 17 13 17 12 11 20 21 21 24 25 26 25 22 20 21 21 22 21 21 19 16 15 16 17 17 18 18 19 20 18 17 18 18 18 19 17 11 10 11 9 10 9 10 8 9 8 11 12 11 10 11 12 12 12 12 13 11 10 9 8 8 9 12 13 15 15 15 14 14 13 13 12 11 10 8 6 5
13 16 17 19 20 16 16 18 13 15 17 10 14 11 18 10 10 14 13 19 15 11 17 21 11 17 16 19 22 26 27 27 24 21 22 22 20 20 20 18 18 16 16 17 16 16 17 18 17 18 18 17 16 16 19 19 14 10 8 5 8 8 10 7 8 9 10 11 10 9 8 13 12 15 13 15 11 9 10 11 9 9 10 12 12 14 15 14 14 14 13 12 11 10 9 7 7
12 18 18 20 21 17 14 17 14 18 15 10 12 16 23 20 8 13 10 15 16 18 18 13 16 9 12 17 27 29 28 26 24 23 22 22 22 20 19 17 17 17 17 16 15 15 15 17 17 17 16 16 17 17 16 18 19 16 12 10 7 7 9 8 7 8 7 7 9 7 6 15 14 16 18 17 14 17 8 6 8 8 9 10 11 12 13 13 13 13 11 11 11 10 9 9 8
16 21 20 19 18 15 9 14 14 15 15 14 17 17 19 20 9 9 12 17 18 19 16 13 13 12 16 23 28 29 29 28 26 25 23 23 20 20 19 18 18 18 18 18 17 16 15 17 17 16 16 15 18 19 19 16 19 17 18 19 17 15 11 9 13 15 11 15 8 13 15 14 14 15 16 13 17 15 15 8 8 7 7 10 9 9 11 12 13 13 11 11 10 10 10 15 11
20 17 18 20 14 11 11 11 11 14 15 18 18 14 17 18 14 12 18 18 22 22 18 19 18 16 18 24 28 28 27 26 25 23 23 21 21 20 19 18 15 18 19 18 17 16 15 15 16 16 15 15 15 14 17 16 17 17 19 18 17 13 16 17 17 16 17 19 18 16 14 13 15 13 15 16 13 9 13 9 9 7 5 7 9 7 9 8 13 13 13 10 8 7 15 13 12
16 16 20 21 12 12 10 11 14 15 17 20 20 17 20 13 12 12 17 18 22 25 27 24 22 22 24 27 26 27 26 26 24 23 23 21 20 21 18 18 18 18 18 19 18 17 17 15 15 15 15 15 15 14 15 17 15 15 14 16 14 16 16 16 13 15 15 15 16 16 14 13 12 11 8 10 10 15 14 9 7 7 6 5 7 11 11 12 14 15 15 13 9 11 15 13 16
16 21 21 15 10 15 12 11 13 15 16 20 18 17 18 11 10 14 10 17 21 21 18 20 24 25 26 28 28 26 27 26 25 24 22 21 21 20 20 19 19 20 18 18 18 16 16 16 16 15 17 17 15 15 15 15 14 14 15 15 15 15 14 14 15 16 15 15 15 16 20 12 12 12 13 15 15 15 16 15 16 15 14 13 8 14 17 19 18 18 18 18 15 15 14 11 10
11 20 17 16 13 17 15 13 11 15 14 17 16 17 15 13 13 15 15 18 19 20 17 10 19 24 29 31 30 28 28 27 25 25 23 21 21 20 18 16 15 15 17 19 18 18 17 17 17 17 15 14 14 14 13 14 15 14 14 13 13 13 13 15 16 16 15 14 15 14 12 12 12 12 12 12 12 12 15 18 14 13 13 13 14 14 14 15 18 17 18 18 16 14 13 12 11
22 19 20 16 16 18 14 16 13 12 17 16 18 13 15 14 13 13 16 16 18 14 13 12 18 22 23 25 29 27 28 27 25 24 23 22 20 19 19 18 20 19 18 18 17 17 17 17 17 18 16 15 13 13 13 15 14 13 13 15 15 13 12 14 17 15 14 15 15 14 14 13 12 12 12 12 12 11 12 12 13 13 13 15 15 16 14 14 14 15 15 15 15 14 14 15 13
21 20 10 14 14 18 17 17 12 15 15 19 15 12 17 13 14 11 17 9 12 12 12 16 20 20 23 26 24 23 24 26 24 23 20 19 18 19 19 18 19 18 18 16 17 17 17 17 16 16 15 15 12 13 12 11 11 11 12 14 14 14 13 13 13 13 13 14 14 15 14 13 13 12 12 12 13 11 11 12 12 13 14 15 15 15 15 13 13 12 12 12 14 14 15 14 16
21 23 14 14 13 16 17 16 15 15 18 18 14 16 14 11 11 11 15 13 11 12 14 20 23 22 23 22 24 23 23 23 23 22 17 19 18 17 17 18 19 18 17 17 17 18 19 16 16 16 16 14 13 10 11 10 10 11 12 13 13 12 13 11 11 11 13 13 14 14 14 13 12 12 12 12 11 12 12 12 13 14 14 15 14 14 13 11 11 12 13 14 13 14 14 13 14
20 16 13 15 16 15 14 16 16 15 15 9 12 12 9 10 9 13 9 13 12 13 16 20 25 24 24 24 23 23 23 23 22 21 20 17 17 19 20 21 20 19 19 18 18 16 17 18 17 16 15 15 14 11 9 9 9 10 11 11 9 11 11 11 10 13 12 13 12 13 14 13 12 12 11 11 11 11 12 14 16 16 15 13 13 13 11 11 11 11 13 15 17 15 16 14 12
8 12 15 18 18 16 11 14 12 10 12 9 12 8 9 11 15 17 10 12 14 15 18 20 23 25 24 24 23 22 23 23 23 21 19 19 20 22 22 19 20 20 18 19 18 17 15 17 17 16 15 10 12 13 9 9 9 10 10 10 11 10 11 11 10 9 10 11 10 11 11 13 12 12 12 12 10 14 16 17 18 14 15 14 14 12 10 10 10 11 14 15 18 17 16 14 15
12 14 17 20 18 13 11 13 12 15 14 10 15 11 9 11 12 16 13 13 14 16 19 20 21 24 25 25 25 22 23 24 25 24 25 25 27 25 22 22 20 19 19 19 17 16 16 14 17 13 15 11 9 11 10 9 8 9 8 8 8 11 10 10 10 9 9 9 9 9 9 11 14 12 13 11 13 14 14 12 12 13 13 13 13 12 11 10 10 12 12 13 12 12 13 13 13
12 12 19 13 11 14 10 9 10 13 11 11 11 12 15 15 11 14 12 12 14 16 19 20 21 23 24 25 26 25 25 25 24 25 24 23 21 22 23 20 21 19 17 17 15 15 16 12 12 13 14 11 11 9 10 8 7 8 7 6 9 11 10 8 9 8 10 12 11 9 8 14 21 16 15 12 12 14 13 13 14 15 15 12 12 11 12 11 11 10 10 11 14 14 12 12 13
14 16 15 17 16 17 14 11 11 11 12 9 12 22 21 17 14 13 12 14 14 16 18 20 21 23 24 24 25 25 23 24 23 23 23 21 20 21 22 19 18 18 18 17 15 16 15 12 12 11 10 13 10 10 8 10 9 8 7 7 9 7 10 9 10 10 11 12 14 13 14 13 14 16 13 12 10 11 12 13 13 15 15 13 12 12 14 13 12 11 15 16 13 16 16 14 13
20 9 15 15 18 19 16 13 13 14 10 10 14 23 19 15 13 11 11 11 15 16 17 19 20 21 23 24 23 23 23 23 23 22 21 20 19 20 20 18 17 15 16 16 17 17 13 13 11 10 10 11 11 10 10 9 9 9 9 9 9 6 6 8 9 11 13 12 9 9 7 8 10 14 12 9 11 10 11 14 13 13 15 15 14 13 13 14 14 14 14 16 16 15 14 14 14
14 19 21 15 20 25 18 13 18 15 14 8 14 20 14 16 13 10 10 11 13 14 15 18 19 20 20 21 21 23 23 23 22 22 20 19 18 18 19 18 16 15 14 15 17 15 15 13 13 12 12 12 12 11 10 9 10 9 8 7 9 7 7 7 7 9 12 12 13 11 10 10 12 13 13 12 12 11 11 13 12 12 14 16 16 15 15 15 14 14 13 13 14 16 17 15 13
16 20 10 13 15 16 19 16 13 13 13 10 15 20 12 15 14 11 9 11 13 14 15 16 18 19 20 21 21 21 23 22 21 22 20 18 17 18 17 18 17 14 12 14 16 15 15 15 15 12 13 14 12 12 11 10 10 10 9 10 10 8 8 8 9 8 10 11 12 13 12 12 12 12 11 10 10 10 10 11 11 12 13 14 17 17 18 16 15 15 13 13 13 15 15 13 12
16 14 10 9 15 15 21 19 15 11 12 15 11 19 12 15 10 11 10 12 13 14 14 15 17 17 18 19 21 22 22 23 23 23 21 19 19 15 15 13 14 13 11 12 14 15 15 15 15 13 13 13 12 13 11 10 10 11 10 10 9 10 9 9 9 10 11 11 11 13 12 13 13 14 13 11 10 8 8 8 9 11 14 14 15 16 17 17 14 13 14 13 13 15 15 14 13
11 14 12 17 12 13 14 17 17 13 10 10 11 15 13 9 9 12 12 13 14 14 15 14 15 16 18 19 21 23 22 21 22 21 21 19 15 17 16 13 13 13 12 13 13 14 14 14 14 13 13 12 12 11 11 10 10 9 10 10 11 10 10 10 9 10 10 10 11 12 11 10 11 12 12 11 11 11 10 8 10 11 12 13 14 15 16 16 16 14 12 13 11 12 11 12 11
9 10 12 9 15 20 19 15 14 14 11 15 13 16 12 9 11 12 13 14 15 15 12 11 13 15 17 19 21 22 21 19 19 19 20 19 17 16 16 15 13 13 13 13 14 14 14 14 14 14 14 14 12 12 13 12 11 10 10 10 10 8 9 11 9 10 10 10 11 11 10 8 10 10 11 11 9 9 10 10 11 11 10 11 12 13 13 10 11 12 13 14 15 14 13 13 13
9 11 13 14 15 11 11 11 13 11 14 14 10 10 12 10 9 11 12 13 16 16 17 16 16 16 19 20 21 21 19 18 19 19 19 20 19 17 16 15 15 14 14 15 16 16 16 18 16 16 15 15 15 16 14 12 11 9 9 9 10 11 10 11 10 10 11 12 11 12 10 10 9 10 9 9 9 8 9 10 10 10 12 10 10 12 11 14 16 16 16 16 17 17 16 14 13
12 13 15 16 15 16 13 12 9 10 14 12 10 13 15 10 9 11 14 14 18 19 18 17 17 18 18 19 21 22 18 16 18 18 19 19 22 18 17 16 16 18 17 17 18 18 17 16 17 16 15 16 16 14 13 12 10 9 10 11 10 12 13 12 12 12 12 12 12 11 10 10 10 9 9 9 8 9 9 11 10 10 10 10 10 11 11 13 13 13 14 16 17 17 16 14 11
12 16 16 15 19 10 13 12 9 9 13 16 9 16 17 11 10 11 15 15 15 16 17 17 18 19 20 20 20 19 19 19 19 19 19 22 21 20 19 17 18 19 18 19 18 18 18 18 17 16 17 17 16 15 15 14 11 8 8 11 9 12 11 11 12 13 11 13 11 11 10 9 9 11 11 11 11 10 10 9 9 9 10 11 12 12 11 12 12 12 14 14 15 15 12 12 11
14 17 14 20 13 14 20 15 12 8 12 14 11 16 17 13 13 12 13 14 11 8 12 14 15 18 20 21 20 20 21 22 22 22 22 22 23 22 21 21 20 19 19 19 19 20 19 19 18 18 17 16 16 16 14 11 11 11 10 11 10 8 12 12 11 10 11 11 12 11 11 10 10 11 12 13 12 12 11 11 12 11 12 11 11 12 11 11 12 12 11 13 14 15 14 12 11
13 13 15 16 11 14 20 15 8 9 9 10 14 20 22 21 20 19 16 14 12 13 13 14 15 15 15 14 16 19 22 22 23 21 21 23 25 26 27 24 23 23 22 22 22 23 19 21 19 19 18 17 16 15 14 13 15 14 13 13 13 13 12 11 11 12 11 11 12 11 11 11 12 12 12 12 13 12 11 12 13 13 14 12 13 13 11 11 11 11 10 10 10 13 15 12 11
16 15 16 12 8 11 11 8 11 17 17 12 12 22 22 12 15 17 18 18 18 16 15 15 14 14 17 19 20 19 19 20 22 23 25 26 28 25 24 24 24 24 24 22 21 22 19 22 19 19 18 18 17 16 15 15 15 15 17 16 16 15 14 13 12 12 13 12 13 12 13 12 13 11 11 12 12 11 11 10 10 12 13 13 13 13 13 13 11 12 12 11 12 8 10 13 14
14 18 20 15 13 11 10 11 13 19 21 16 10 18 13 15 14 15 14 15 16 16 14 11 13 15 17 19 19 20 21 21 22 22 23 24 25 25 25 26 27 26 24 21 20 20 20 20 19 20 20 19 18 17 16 16 15 15 15 15 14 14 14 12 11 11 11 13 13 11 13 11 12 12 11 12 12 12 12 11 11 11 12 12 12 12 13 12 13 14 12 11 10 10 9 10 10
17 10 13 15 14 14 13 13 13 20 11 8 11 18 21 18 16 15 14 15 17 18 15 12 13 12 13 14 16 17 20 19 21 23 24 24 24 26 28 27 27 27 22 22 21 21 22 21 20 20 20 20 18 18 18 17 17 16 15 13 13 13 12 14 13 12 11 12 13 12 12 12 11 12 12 13 13 13 13 13 13 13 12 13 13 13 13 13 13 14 13 12 11 10 9 9 10
13 8 10 14 15 11 11 16 15 12 12 21 19 12 21 23 16 13 13 19 18 18 15 12 12 12 11 13 15 15 16 17 19 22 23 24 24 26 25 25 25 23 24 23 23 22 22 20 20 20 21 20 19 19 19 18 17 16 16 15 14 13 13 14 14 14 14 13 12 12 11 13 13 11 12 12 12 14 13 14 14 14 13 12 14 16 15 15 14 13 13 14 13 12 11 9 7
10 10 11 12 10 11 11 18 17 12 17 18 15 13 22 21 12 17 17 17 16 15 11 10 11 10 9 10 10 13 16 16 18 21 21 21 23 23 22 22 24 26 24 20 20 21 22 20 21 22 21 21 20 20 20 18 18 17 17 15 14 14 13 13 12 14 13 13 13 12 13 13 14 13 12 12 13 15 16 16 16 15 14 14 15 16 16 16 15 15 15 13 13 13 13 12 11
15 13 16 17 16 15 15 13 15 16 18 23 12 11 16 24 13 13 11 13 14 12 10 10 10 12 13 13 15 16 17 15 17 18 19 18 17 19 21 23 23 23 21 22 22 23 22 22 22 23 22 22 21 22 21 20 19 18 18 16 16 15 15 13 14 14 14 13 14 13 13 13 13 14 13 13 13 16 15 16 15 15 15 14 15 14 14 15 15 15 15 15 14 13 13 14 13
16 19 19 18 17 14 18 17 13 18 22 14 14 9 12 19 16 13 13 10 10 10 12 13 15 16 18 17 18 18 17 17 17 17 18 19 19 18 20 21 22 23 22 23 21 22 23 22 22 23 23 23 21 22 22 21 21 19 17 16 17 17 17 16 16 16 16 15 14 14 13 14 13 14 14 15 15 15 15 16 15 15 16 15 15 14 14 15 14 14 13 14 15 14 13 13 12
18 19 19 19 21 16 20 23 19 21 20 14 12 13 15 24 20 15 13 11 10 9 11 13 15 18 18 18 19 18 17 17 16 14 13 16 20 22 21 21 21 22 24 24 23 22 22 21 23 24 25 23 22 22 22 21 20 20 19 17 16 16 17 16 15 15 15 15 16 15 14 14 15 15 15 16 15 15 15 15 14 15 16 15 15 15 14 15 15 15 15 15 14 14 14 12 14
21 21 19 22 25 23 20 21 20 19 11 14 11 10 21 17 14 15 13 11 10 9 9 10 12 14 15 17 17 17 17 17 16 13 11 12 16 18 20 21 22 22 22 24 22 22 22 21 22 23 23 22 21 21 22 22 21 19 18 17 16 16 16 16 15 15 15 15 15 15 15 15 16 15 16 16 17 16 14 13 13 14 15 16 16 16 15 15 15 17 16 16 15 15 15 14 14
22 16 20 20 23 26 20 23 22 22 15 13 14 12 12 14 13 13 13 10 10 11 9 10 9 10 11 13 15 15 15 16 16 15 13 9 9 12 15 16 17 18 19 20 20 21 21 21 22 23 23 23 22 22 21 22 22 20 18 18 17 15 16 17 17 16 16 15 15 15 15 14 15 15 17 16 18 16 14 14 15 15 15 15 15 14 15 15 14 15 16 15 15 15 15 14 13
16 15 17 21 22 14 27 12 20 18 15 13 18 15 11 14 15 13 12 14 13 11 12 9 11 11 11 12 14 16 17 18 17 15 14 11 10 11 13 13 14 15 16 17 18 19 19 20 19 20 21 21 22 22 22 22 21 20 19 18 18 16 16 16 16 16 16 15 15 15 15 14 14 15 16 17 17 17 16 16 16 16 16 16 15 15 14 14 13 13 14 13 14 13 14 13 14
14 19 25 19 13 19 16 8 11 4 15 29 16 15 21 15 16 15 16 16 15 13 13 12 12 13 12 15 16 17 18 19 19 17 15 13 11 11 13 13 13 14 16 16 17 17 18 19 18 19 20 18 22 21 21 21 20 19 19 19 17 17 17 16 16 16 16 16 16 16 16 16 14 15 17 18 18 17 18 17 16 16 15 15 14 14 13 13 13 12 13 12 12 12 11 11 10
15 21 19 15 10 14 17 23 11 17 25 22 13 15 22 19 22 21 19 18 18 16 14 15 13 12 15 17 16 17 18 18 19 19 17 16 15 15 14 11 12 13 14 15 17 17 18 19 18 19 20 20 19 23 21 20 20 19 19 19 19 18 17 17 16 16 17 17 17 17 16 17 18 17 18 18 19 19 18 17 17 17 16 15 14 14 14 14 12 13 13 12 12 11 11 11 10
22 17 15 20 18 19 20 21 24 19 25 27 21 21 27 25 19 22 20 21 20 18 16 16 16 14 15 15 16 17 16 17 19 21 21 20 17 16 15 13 14 11 9 9 12 14 13 14 15 17 19 20 19 18 19 19 19 19 18 19 18 19 18 17 17 17 17 18 19 18 18 18 17 18 19 19 20 20 20 19 18 18 17 17 15 15 15 14 13 14 13 14 13 12 11 11 11
12 11 20 10 19 24 21 21 22 27 24 21 20 20 26 22 22 21 23 22 21 20 17 15 15 14 14 14 16 17 18 18 19 21 21 21 20 18 18 15 15 13 11 11 10 8 10 11 11 12 13 14 15 16 15 17 18 18 16 16 16 19 19 18 17 17 18 18 19 19 19 18 19 19 20 21 21 21 21 20 19 19 19 18 17 16 15 14 14 13 13 14 14 13 13 12 12
18 19 23 18 21 11 20 23 28 27 28 26 26 29 26 14 12 17 20 21 21 19 18 16 15 14 15 15 15 16 18 18 19 19 21 22 20 19 19 18 20 19 16 14 14 12 10 9 10 12 13 14 15 15 16 16 16 18 17 18 18 18 18 19 17 17 18 18 17 18 19 19 20 20 21 22 22 23 23 22 21 21 20 19 18 17 15 15 14 14 14 14 15 14 13 13 12
19 19 21 22 22 21 24 27 19 26 32 30 26 32 26 15 12 9 20 20 20 17 18 18 16 15 15 15 14 15 16 17 18 19 19 20 21 22 22 22 21 20 20 19 19 16 13 10 9 9 11 13 13 16 16 17 17 18 18 19 19 18 19 18 17 17 17 18 18 18 18 19 19 21 22 24 24 22 22 23 22 22 21 20 19 18 17 15 15 15 15 14 14 14 12 12 10
Wind_Speed
7 5 3 5 5 5 5 6 7 6 5 8 8 5 3 1 3 4 4 2 5 5 1 2 4 7 6 3 6 2 9 3 4 6 2 4 6 11 12 15 15 15 14 14 14 14 15 13 12 11 10 10 11 11 10 10 11 14 15 15 15 15 15 16 15 15 14 14 14 13 13 13 12 11 11 11 10 10 10 11 11 12 13 11 13 13 12 11 10 10 10 9 9 10 10 10 11
3 3 4 4 5 5 5 3 6 5 6 8 7 5 4 3 5 4 1 2 6 4 1 3 6 7 2 0 2 3 6 11 11 9 7 8 8 10 13 14 14 15 14 14 14 13 13 14 13 12 11 11 11 11 10 10 10 11 13 16 16 15 15 16 15 14 14 13 13 13 13 12 11 11 10 10 9 9 8 9 10 11 11 11 11 11 10 11 10 10 9 9 9 9 9 10 11
2 4 4 5 5 6 1 5 6 6 8 7 5 2 5 6 5 1 2 3 3 4 3 5 5 6 6 2 8 9 6 7 11 10 9 11 12 11 14 14 13 14 15 13 13 13 11 13 12 12 11 11 11 11 11 10 9 10 11 12 13 13 13 14 14 14 14 13 13 13 12 12 11 11 10 9 7 6 7 8 10 11 11 11 11 11 10 10 10 10 10 9 9 9 9 11 11
5 4 5 5 5 4 6 5 8 8 8 6 6 6 1 2 2 4 1 4 5 3 5 8 8 2 5 9 5 6 7 6 7 10 9 10 9 12 13 14 14 12 12 11 12 12 10 14 12 12 11 11 12 12 12 11 10 10 11 11 12 13 13 13 14 14 13 13 13 13 12 12 12 11 10 9 7 6 6 7 7 9 10 10 11 11 11 10 11 11 10 9 9 9 9 10 10
5 4 5 6 6 6 6 5 6 5 9 6 5 8 3 3 4 3 7 5 4 2 5 4 2 4 6 7 2 2 7 9 8 6 9 10 13 12 14 14 12 12 11 13 13 12 12 16 12 12 11 12 13 13 12 12 12 11 11 12 12 13 13 13 14 14 14 14 13 13 13 12 12 12 11 10 8 8 7 7 6 7 6 7 7 8 8 8 10 11 10 10 10 9 9 9 9
5 4 4 6 4 6 5 6 7 9 7 4 7 5 5 6 7 6 5 3 2 3 1 7 3 8 6 5 5 5 3 4 7 7 10 10 13 14 14 13 13 12 11 10 12 12 13 14 12 12 11 11 12 13 13 13 13 13 13 13 12 13 12 12 12 12 12 12 12 12 12 11 11 11 11 10 9 9 9 8 7 7 6 6 7 7 8 7 8 8 8 10 11 10 10 10 10
4 6 5 6 4 4 7 8 8 5 3 2 4 2 5 6 6 0 5 5 3 3 4 2 3 7 5 5 8 6 2 6 7 9 9 13 14 14 14 12 12 13 12 10 8 12 16 15 12 10 11 11 10 11 12 12 12 11 11 12 12 12 11 11 11 10 11 11 11 11 11 11 11 11 10 10 9 9 9 8 8 8 7 7 8 8 8 8 7 8 10 12 12 12 11 10 10
3 7 5 7 5 5 8 8 8 4 4 4 3 1 4 5 3 2 1 7 7 7 7 3 3 5 8 2 1 4 5 4 9 12 16 12 14 14 13 12 12 13 11 10 9 11 18 15 13 10 11 10 11 11 10 10 11 10 10 9 10 9 9 10 10 9 9 10 11 11 11 11 10 10 9 9 9 9 9 9 9 9 9 9 8 8 9 9 9 10 12 13 14 13 12 10 10
6 7 2 7 8 5 7 8 5 0 5 3 5 2 3 4 4 5 4 3 4 1 7 5 6 7 6 6 6 6 7 9 11 13 15 14 13 14 10 12 12 11 12 10 10 11 13 14 13 11 11 11 11 12 12 11 11 10 9 9 8 9 9 8 9 9 9 9 10 11 11 11 10 10 9 9 9 9 10 10 10 10 10 9 9 9 9 10 11 12 12 13 13 13 12 10 9
5 6 5 6 5 8 8 6 7 2 5 4 4 3 2 4 6 5 6 5 5 5 5 3 4 3 10 8 9 6 7 11 13 13 14 14 12 12 12 11 12 13 11 11 10 10 10 13 11 12 10 10 9 11 11 10 9 9 9 8 8 9 9 8 8 8 8 8 9 10 10 10 10 9 9 9 9 9 10 9 9 9 9 10 10 10 10 11 12 13 13 12 12 12 12 10 8
6 6 4 7 7 8 8 6 4 3 6 5 4 4 3 2 5 7 6 7 3 6 6 6 6 8 7 9 6 5 10 13 14 14 13 14 12 12 11 11 11 11 11 11 10 10 11 12 14 11 12 11 9 8 9 10 9 7 7 8 8 9 9 8 9 8 8 8 9 10 10 10 10 9 9 9 9 9 9 8 7 10 10 9 10 9 10 12 11 12 11 10 10 10 10 11 8
6 6 5 8 8 7 3 5 1 3 4 6 5 4 3 4 4 8 7 9 8 7 7 8 5 7 8 8 7 7 10 12 12 12 12 13 12 12 11 9 10 10 11 11 10 10 11 11 11 13 12 11 9 9 8 9 5 7 9 8 7 6 7 8 8 8 8 7 8 8 9 9 10 9 8 8 8 8 9 9 8 8 10 10 9 8 10 11 11 10 10 10 9 8 9 9 9
8 3 7 7 6 5 2 5 4 3 5 7 4 6 3 4 6 8 8 8 8 10 9 6 10 10 7 6 8 10 12 12 11 12 13 12 12 11 10 10 11 11 10 10 10 10 11 11 10 11 12 13 11 9 13 10 3 5 5 6 7 6 6 7 8 8 7 8 7 7 8 8 9 9 9 8 8 8 8 9 10 10 10 10 10 10 10 10 9 10 10 10 8 8 8 7 7
7 4 5 8 1 6 5 4 2 5 6 6 5 4 3 6 5 6 6 9 9 11 5 8 9 5 8 9 9 10 11 13 13 12 11 13 11 11 11 10 10 9 8 10 9 10 10 10 9 10 12 11 9 10 12 4 5 5 7 5 5 6 6 7 6 6 7 8 8 7 8 8 8 8 8 8 8 7 7 8 8 9 11 11 11 11 11 10 10 10 9 9 8 7 7 6 6
7 1 5 7 5 4 5 7 3 4 2 5 8 3 8 0 5 5 7 8 9 5 8 4 2 9 6 9 9 10 13 15 14 12 12 12 12 12 12 10 8 8 8 8 9 9 9 9 10 9 9 9 9 8 9 8 3 7 5 6 6 6 8 5 6 6 8 9 9 8 8 9 9 8 7 6 7 6 6 7 7 8 10 11 12 11 12 11 11 11 10 8 8 8 6 5 4
4 4 5 6 8 6 5 7 4 5 3 2 6 4 7 3 2 6 5 9 3 4 7 6 3 4 4 10 12 15 17 17 14 12 11 13 12 11 11 10 9 8 7 8 8 7 8 9 8 8 8 8 8 8 10 9 8 5 4 2 5 6 6 4 6 5 2 5 6 7 7 8 8 7 8 6 8 7 7 7 8 7 8 10 10 11 11 11 11 11 9 9 8 7 7 5 5
3 6 6 7 8 6 3 6 4 4 5 2 4 7 9 9 1 5 3 6 7 8 9 3 6 1 4 5 16 18 18 16 16 15 13 11 10 9 8 8 8 7 6 8 7 6 7 8 9 8 8 8 8 7 7 8 10 12 7 6 5 2 4 5 5 6 5 4 5 5 5 7 7 5 7 7 8 8 7 4 7 7 7 8 9 9 10 10 10 10 9 9 8 7 7 7 6
5 7 7 7 6 5 1 5 4 6 5 4 7 8 9 11 1 1 4 9 9 9 8 5 6 4 7 12 17 18 18 18 16 16 13 12 10 9 9 8 8 8 8 7 8 7 6 7 7 7 7 8 10 8 6 5 8 10 9 8 6 6 6 6 6 6 5 4 4 6 6 6 6 7 5 8 8 6 6 6 6 5 6 8 6 8 9 10 10 10 9 8 8 8 7 5 5
7 5 6 7 4 1 3 3 4 5 4 8 8 7 9 9 6 3 7 10 12 11 9 10 9 8 10 15 17 17 17 17 16 14 14 13 11 11 9 8 7 8 8 8 7 7 6 6 7 7 7 7 7 7 7 6 8 7 9 8 7 9 8 8 7 6 7 9 9 6 6 3 6 5 7 5 5 6 5 6 6 5 4 6 7 5 8 7 11 10 10 8 6 5 6 4 4
6 5 7 8 4 3 2 3 6 7 8 9 9 8 11 6 4 4 8 8 11 13 11 13 12 12 14 16 16 17 17 17 15 14 14 13 12 11 10 10 9 9 9 7 8 6 7 5 6 7 6 7 7 5 6 7 6 6 5 6 5 6 8 7 6 7 7 7 5 3 5 4 5 3 4 5 6 6 5 5 4 5 5 4 6 7 7 10 11 12 11 10 7 7 6 5 6
6 7 8 4 2 5 3 3 5 7 8 9 9 8 9 4 3 6 3 7 10 10 9 11 13 15 16 16 16 16 16 16 15 14 13 13 13 10 10 9 9 9 7 8 8 7 8 7 6 6 8 8 6 6 7 6 6 6 6 6 6 5 5 6 6 6 5 6 6 5 10 5 4 3 5 4 6 6 5 4 6 6 5 5 6 6 7 8 9 8 7 9 6 7 6 4 4
1 9 8 8 4 7 6 5 4 6 7 9 8 9 7 5 5 6 7 7 7 8 9 3 9 14 17 17 17 16 17 16 16 15 14 13 13 11 9 8 7 7 8 7 8 8 8 7 8 6 5 4 6 6 5 6 6 5 5 4 4 5 5 5 4 4 5 5 7 5 1 3 4 4 4 4 3 3 7 8 6 5 5 5 6 6 5 6 7 7 8 8 6 6 6 5 4
8 8 10 8 7 8 5 6 5 5 7 8 8 5 7 7 5 5 6 7 9 6 5 5 9 12 13 14 15 16 17 17 16 15 14 14 12 11 11 9 9 8 8 7 7 7 7 7 7 8 6 6 6 5 5 6 5 5 5 6 6 4 4 5 7 6 5 4 5 4 4 4 4 3 4 4 4 3 3 3 5 5 5 6 5 6 6 6 5 5 6 6 6 6 6 7 6
10 7 1 6 7 8 7 8 6 7 8 9 7 6 9 6 6 3 7 2 5 4 5 8 10 11 13 15 14 15 15 15 15 14 12 12 12 11 11 10 9 8 8 8 7 7 7 8 7 7 6 6 4 4 4 4 4 4 4 5 6 6 5 5 4 5 5 5 5 5 5 5 5 4 4 4 4 3 3 4 4 4 5 5 5 6 6 4 4 4 5 5 6 6 6 6 7
9 10 6 7 5 6 7 7 6 7 9 9 7 8 7 4 3 2 5 5 4 4 7 11 12 12 13 13 14 14 15 14 15 14 10 10 11 10 9 8 9 8 7 8 7 7 8 7 7 7 7 6 5 3 3 2 3 4 5 5 5 6 4 4 3 4 5 5 5 6 6 4 3 4 4 4 4 3 4 4 4 5 5 6 5 5 5 4 3 4 4 5 5 5 5 5 6
10 8 6 6 7 6 6 7 8 7 5 2 5 5 2 3 1 5 2 6 5 5 8 11 14 14 14 14 14 14 14 15 14 13 12 9 10 12 12 10 10 9 8 9 7 6 7 8 7 7 6 5 5 3 2 2 2 3 4 4 3 4 4 4 3 4 3 4 4 5 6 5 3 3 4 3 3 4 4 6 6 6 5 4 4 5 4 3 3 4 5 6 6 6 6 6 5
0 5 7 8 8 7 4 6 4 3 5 2 5 2 2 3 6 6 3 5 6 7 9 11 13 15 14 14 13 13 14 14 14 11 11 10 10 12 12 10 10 10 9 10 8 7 7 8 7 7 6 3 4 4 2 2 2 3 3 3 4 3 3 3 3 2 3 3 3 4 4 4 4 5 5 4 3 6 7 6 5 4 5 5 5 4 2 3 3 3 5 6 7 7 6 5 6
5 5 8 10 9 6 4 6 5 6 5 4 7 3 2 4 5 6 5 6 7 8 10 11 11 13 13 15 15 13 13 13 13 13 15 15 13 12 12 10 11 10 10 10 7 7 7 6 8 6 7 4 2 3 3 2 2 2 2 2 1 3 3 2 2 1 1 2 2 3 2 1 3 3 5 1 6 5 4 4 4 5 4 5 5 3 2 3 3 4 4 5 5 5 5 5 5
5 5 8 5 5 5 2 2 3 6 3 4 4 5 7 7 4 6 5 5 6 8 9 11 12 12 13 14 14 13 13 13 12 13 14 12 11 10 12 11 11 10 7 9 7 7 8 5 5 5 6 5 4 2 3 1 1 1 1 1 2 3 3 1 1 1 2 3 2 2 2 5 8 3 4 5 5 4 4 4 5 6 5 4 3 4 4 3 3 2 3 4 6 5 5 5 5
6 7 6 7 7 6 5 4 4 5 4 2 4 8 8 7 7 6 5 6 7 8 9 10 10 11 12 13 12 13 12 13 13 12 12 11 10 11 12 11 11 8 8 8 8 8 7 4 4 4 3 5 3 3 2 2 2 2 0 1 2 1 3 3 3 2 2 3 4 4 5 7 6 2 2 2 0 1 3 5 5 5 5 3 3 4 4 5 4 4 6 6 6 6 7 6 5
7 1 5 5 6 6 7 3 6 5 3 3 6 9 6 7 6 4 4 4 7 7 8 10 10 11 12 12 12 12 13 12 12 12 12 11 10 10 12 10 9 8 7 8 9 9 7 5 4 3 3 3 4 3 3 2 2 1 2 1 2 1 1 1 2 3 3 3 3 1 1 1 2 3 2 1 4 2 3 4 5 5 6 5 4 5 5 5 5 5 5 6 7 6 6 6 6
4 6 7 5 7 10 9 4 4 4 5 1 6 7 3 7 5 3 3 4 6 5 7 9 9 10 10 10 11 11 11 12 13 12 11 11 10 9 10 10 9 8 7 8 8 7 7 6 5 4 4 4 4 3 3 2 3 2 1 2 2 1 0 1 1 2 3 4 4 4 3 2 3 4 4 4 3 3 3 3 4 3 5 5 5 5 6 6 6 5 5 5 6 7 7 7 5
5 7 3 4 4 6 8 7 5 6 5 3 6 7 4 6 6 4 2 4 5 6 6 8 9 11 10 10 10 11 11 12 11 12 12 10 9 9 8 10 8 7 6 7 8 7 8 8 6 6 6 6 5 4 4 3 2 3 2 3 3 1 1 2 2 2 3 4 4 4 5 4 5 4 4 3 3 4 3 3 3 4 5 5 7 6 7 6 5 5 4 5 5 5 6 5 4
5 4 1 1 5 4 6 9 5 3 4 5 4 7 4 6 2 3 3 4 5 6 6 6 7 7 9 9 10 11 11 11 12 12 12 11 9 8 7 7 7 7 5 6 7 7 7 8 7 6 5 5 4 5 4 4 3 3 3 3 2 2 2 2 2 3 3 3 3 4 5 5 5 6 5 4 3 2 2 2 3 4 5 6 6 7 6 5 4 3 4 4 4 5 5 5 4
3 5 3 6 4 5 4 5 7 2 3 2 3 6 5 1 2 4 4 5 6 6 5 5 6 7 8 9 10 12 11 11 11 11 12 11 9 9 7 6 6 6 5 6 6 7 6 6 6 6 6 5 5 5 4 4 4 2 2 2 4 3 3 3 2 3 3 3 3 4 4 3 4 5 5 4 4 4 3 2 3 5 4 5 5 5 6 5 4 2 4 4 2 2 3 2 1
2 2 4 1 5 8 7 6 6 6 2 6 5 5 1 1 3 4 5 5 7 7 5 3 5 6 8 9 10 11 11 10 9 11 12 10 9 8 7 7 6 6 6 6 7 7 7 7 6 6 6 6 6 5 5 5 4 3 3 3 3 2 3 3 3 3 2 3 3 3 2 1 2 2 3 2 2 3 3 3 3 3 3 4 4 5 5 2 2 4 7 6 6 4 4 3 2
2 4 6 5 6 3 3 3 5 4 5 5 1 3 4 3 1 4 4 5 7 8 8 7 7 7 8 9 10 11 10 9 9 11 11 12 11 8 8 7 7 7 7 8 8 8 8 8 8 8 7 7 6 6 6 4 4 3 2 2 3 3 3 4 3 3 3 4 3 3 2 2 2 2 1 2 2 1 3 3 4 4 4 3 3 5 4 6 7 8 6 6 7 5 5 3 3
5 5 7 6 6 5 5 4 2 2 6 2 2 5 7 3 0 4 6 6 9 10 9 9 9 9 8 9 10 11 9 7 10 10 11 12 11 10 9 7 9 10 9 9 10 10 9 9 9 8 7 7 7 6 5 4 3 2 3 3 3 4 4 4 4 4 3 4 4 3 3 3 3 2 2 2 1 2 2 3 3 2 3 3 2 3 3 5 5 5 6 6 6 6 5 4 4
5 6 6 6 7 1 5 5 2 2 4 6 1 7 7 4 3 4 6 7 7 8 9 8 8 9 8 8 9 9 10 10 10 10 11 12 13 12 10 9 9 11 10 10 10 10 10 9 9 8 8 8 7 7 5 4 3 3 2 4 2 4 4 4 4 5 3 5 4 3 3 2 2 3 3 4 3 2 1 1 2 2 2 3 4 4 4 5 4 5 6 5 5 5 3 3 3
5 7 5 7 3 4 7 7 5 1 3 5 3 6 7 6 6 5 6 6 4 2 6 7 7 8 9 9 8 9 11 11 12 12 13 13 13 12 11 11 10 10 10 10 10 11 9 9 9 9 8 8 7 7 6 4 5 5 3 4 3 2 4 4 4 4 4 4 5 4 4 3 3 3 4 4 4 4 2 3 2 2 2 2 3 4 4 4 4 3 4 4 5 5 5 4 2
6 6 6 6 3 5 9 5 2 3 2 4 6 8 9 10 9 8 7 6 5 6 6 6 6 6 6 7 8 9 11 12 12 12 12 13 15 15 15 14 12 12 11 12 12 11 8 12 10 10 9 9 7 8 7 6 6 6 5 5 5 5 5 4 4 4 4 4 4 4 4 4 4 4 4 4 4 4 3 4 4 4 3 3 3 3 3 3 4 3 3 3 4 5 6 3 2
6 8 8 6 2 5 4 2 4 6 6 3 4 7 8 3 6 8 7 7 9 7 7 7 6 7 8 9 10 9 10 10 11 13 15 16 16 15 14 14 14 13 12 12 11 11 11 11 10 10 9 9 8 9 8 7 7 7 7 7 7 6 5 5 4 5 5 4 4 4 5 5 5 4 4 4 4 3 4 3 3 4 4 3 3 4 4 3 3 4 4 4 5 2 2 4 4
5 6 11 8 6 5 4 5 5 7 8 6 4 6 3 4 5 6 5 6 8 7 6 4 5 6 7 9 9 9 10 10 11 12 13 14 15 15 15 15 15 15 14 11 11 11 12 11 11 11 10 9 9 9 9 7 7 7 8 7 6 6 5 4 4 4 4 4 4 4 4 4 4 4 4 4 4 4 4 4 3 3 4 3 3 3 4 3 3 5 5 4 3 3 3 2 2
5 4 6 7 7 7 6 6 4 7 4 2 4 6 8 6 6 6 6 7 8 9 7 5 4 5 5 6 6 7 8 9 9 12 13 13 13 15 17 16 15 15 13 12 11 11 13 12 11 12 10 10 9 9 10 8 8 7 8 7 6 6 5 6 6 5 4 5 5 5 4 4 4 4 4 5 5 5 5 5 4 4 3 4 3 4 3 4 4 4 4 3 3 2 2 3 3
3 1 3 7 7 5 5 6 6 4 4 8 7 5 7 8 3 5 5 9 9 9 7 5 4 4 4 4 5 6 7 7 9 10 12 14 13 14 14 14 14 14 13 13 12 12 12 11 11 12 11 11 10 11 10 10 8 8 8 7 6 5 5 6 6 6 5 5 6 4 4 5 5 4 4 5 5 6 5 5 5 4 4 4 4 5 5 5 6 5 4 4 4 3 3 2 0
4 2 2 4 3 4 4 7 7 4 6 7 7 5 7 8 4 6 8 7 7 6 3 3 4 3 1 1 2 5 6 7 9 11 11 10 13 13 13 13 14 14 13 12 11 11 12 11 12 13 12 11 10 12 11 11 10 8 8 8 8 6 6 5 5 6 6 5 6 5 5 5 5 5 4 4 5 6 6 7 6 6 5 5 5 6 6 6 6 6 5 5 5 5 4 4 3
4 6 7 7 6 5 6 5 5 6 6 10 2 4 6 8 5 5 3 3 5 2 2 2 2 2 2 3 4 5 6 5 6 8 10 10 9 10 11 13 14 13 12 12 12 12 12 12 13 14 13 11 11 12 12 12 11 10 9 9 9 8 8 7 6 6 6 6 6 6 5 5 5 5 5 5 6 7 7 6 6 6 5 5 5 5 5 5 6 6 6 6 5 5 5 5 4
7 6 7 7 6 4 7 6 4 6 8 1 5 2 5 7 5 4 4 3 2 2 2 3 4 5 6 7 7 8 7 7 7 7 8 9 10 10 10 12 13 14 12 12 11 12 13 12 12 14 14 14 12 12 13 12 11 10 10 9 9 9 9 7 7 7 7 7 6 6 5 5 5 5 5 6 6 6 6 6 6 6 5 5 5 5 5 5 5 5 5 5 5 5 5 4 4
7 8 7 8 7 4 6 8 7 6 7 5 3 5 6 10 8 5 5 3 2 2 3 3 5 6 7 7 7 6 6 7 6 6 5 6 9 10 12 12 12 13 13 14 12 12 12 12 13 15 15 14 12 13 13 13 11 11 10 9 9 8 9 8 7 7 7 6 6 6 6 6 6 6 6 6 7 7 6 6 6 5 5 5 5 5 5 5 5 5 6 6 5 5 4 4 4
9 8 7 9 9 8 8 7 6 6 3 5 3 2 8 7 2 5 4 3 3 2 1 2 4 5 6 7 7 6 6 6 6 4 3 3 6 8 10 11 12 11 13 13 13 12 11 11 13 14 14 13 12 12 13 13 12 11 10 9 8 8 8 8 7 7 7 6 6 6 6 6 6 6 7 7 7 7 5 5 5 6 6 6 6 5 5 5 5 5 6 6 6 5 5 6 5
8 7 7 8 8 7 7 7 8 8 3 4 6 4 2 6 3 5 5 3 3 3 1 3 2 2 4 5 6 6 7 7 6 5 4 1 2 5 6 7 8 8 9 11 10 11 11 11 12 14 14 14 13 13 12 13 11 11 10 9 8 7 7 8 8 7 7 7 6 7 6 6 5 6 7 7 9 7 6 6 6 6 7 7 6 6 5 5 4 4 5 5 4 4 4 4 4
6 6 6 8 8 4 11 3 7 7 4 4 7 4 2 2 5 4 4 6 5 4 4 2 3 4 4 4 6 6 7 7 7 6 6 4 3 4 5 5 6 6 8 8 9 10 10 10 11 12 13 12 13 13 12 12 12 10 11 10 10 9 7 7 7 7 7 7 7 7 7 7 6 6 7 8 9 8 7 7 7 7 7 7 6 6 6 5 5 4 4 4 4 3 4 4 4
3 6 10 6 4 7 5 2 3 0 5 10 5 4 7 4 6 7 7 7 7 5 5 4 4 5 5 6 7 7 8 8 8 7 6 6 4 4 5 5 5 6 7 8 9 9 10 10 10 11 11 10 12 12 12 12 11 11 11 11 10 9 9 9 7 9 9 8 8 8 7 8 7 7 7 8 9 8 8 8 7 7 7 6 6 6 6 6 5 4 5 5 5 4 4 3 2
3 8 6 2 2 6 4 8 3 5 10 7 5 6 10 7 5 9 10 9 9 8 6 6 6 5 7 7 7 8 8 8 9 9 8 7 7 7 6 4 4 4 5 6 8 8 8 9 10 10 11 10 10 11 11 11 11 11 10 11 11 10 9 9 8 8 8 8 8 8 7 8 8 8 8 8 9 10 9 9 8 8 7 7 6 6 6 6 5 5 5 4 4 4 4 4 3
9 6 6 7 5 8 7 5 10 7 9 8 9 11 12 10 5 9 11 11 11 9 8 8 7 6 6 6 7 8 8 8 8 10 9 9 8 8 7 6 7 5 4 3 4 5 5 6 7 8 10 11 10 8 9 9 10 9 8 10 10 10 9 8 8 8 8 9 10 9 9 8 8 9 9 9 10 10 9 9 8 8 7 7 7 6 6 6 5 5 5 5 5 4 4 4 3
5 4 8 2 6 9 8 5 8 8 10 9 9 9 8 8 8 10 11 12 11 11 9 7 7 6 5 5 6 7 8 8 8 10 10 10 10 10 10 8 7 7 5 5 4 3 2 3 3 4 4 6 8 8 7 9 9 9 8 7 9 9 9 9 8 8 8 9 10 10 10 10 10 9 10 11 10 11 11 10 9 9 9 8 8 7 7 6 6 5 5 5 5 5 5 5 4
7 7 9 6 7 2 7 8 10 9 9 9 9 11 9 4 2 5 8 11 12 10 9 7 6 6 6 7 6 7 8 8 8 9 10 11 10 9 9 8 9 10 8 6 6 6 4 2 1 3 4 5 6 7 7 7 7 8 9 9 9 9 10 9 9 8 8 8 8 9 9 10 10 10 10 11 11 12 12 11 11 10 10 9 9 8 6 6 5 6 5 5 6 6 5 4 4
7 7 9 9 10 9 10 11 7 9 10 9 9 11 10 4 4 0 6 10 10 9 10 8 7 7 7 6 7 7 7 8 9 9 10 10 11 11 11 10 10 10 10 10 9 8 7 4 2 1 0 2 4 6 7 7 8 8 10 10 10 10 9 8 9 9 9 8 8 9 9 9 10 11 11 12 13 11 11 12 11 11 10 10 9 9 8 7 6 7 6 5 5 5 5 4 3
Wind_Direction
259 237 300 271 263 256 241 209 244 171 229 239 252 211 99 146 9 279 221 196 234 98 290 151 216 159 184 182 187 111 26 255 14 248 41 117 136 129 140 135 137 136 137 133 132 141 143 136 135 134 134 131 128 124 123 122 124 129 129 129 130 128 128 129 128 128 129 130 133 135 136 138 141 142 141 143 142 140 139 139 143 153 157 139 146 153 151 145 142 134 135 136 133 133 133 128 127
235 274 253 249 240 216 196 238 269 231 220 258 246 253 94 133 228 242 261 311 354 47 142 185 176 171 35 239 114 143 82 47 52 78 102 110 133 139 133 139 136 133 137 133 135 136 144 141 137 137 136 133 130 129 128 127 128 127 129 132 133 131 131 131 128 130 131 133 134 136 135 135 132 131 133 137 141 141 143 139 140 140 141 140 141 147 146 146 141 140 140 139 138 134 131 127 124
261 248 208 215 218 239 358 215 250 241 251 246 232 155 89 235 242 191 24 356 74 93 146 140 138 157 166 174 192 215 106 74 83 90 103 144 138 140 142 137 133 133 134 131 135 139 145 143 138 138 141 137 135 134 132 133 134 134 130 129 128 128 127 129 130 132 135 135 137 138 136 134 133 135 134 125 118 122 126 130 137 142 144 145 146 146 150 149 150 148 142 144 142 134 132 124 125
279 265 253 200 187 228 220 210 249 268 252 266 288 106 258 321 2 352 65 115 103 123 143 144 179 42 260 191 89 83 102 111 82 110 122 161 136 140 141 137 130 132 134 130 135 139 145 141 142 140 140 141 141 140 139 140 141 142 140 136 136 132 132 132 136 137 138 140 141 140 140 138 139 138 133 121 108 105 117 130 135 141 142 147 151 153 153 153 151 147 147 149 142 136 131 125 127
252 215 250 240 263 203 234 241 269 255 252 258 258 79 58 42 39 84 120 121 125 179 206 129 126 138 6 38 53 242 83 89 106 125 124 101 122 138 141 141 132 132 133 135 134 134 141 141 142 139 143 147 145 145 145 144 149 151 149 145 142 140 138 139 141 143 144 144 143 144 142 142 141 140 136 131 123 116 113 112 117 126 138 142 144 145 143 145 151 152 150 147 136 131 130 127 122
233 210 202 254 255 1 267 233 225 236 264 2 281 57 55 69 79 96 117 145 146 207 220 191 315 165 186 45 9 99 141 164 128 128 132 130 134 136 140 146 131 129 127 127 132 136 139 135 142 141 147 152 149 149 151 149 152 156 153 150 147 146 141 141 141 144 144 144 143 143 144 143 142 142 140 134 130 127 125 121 116 126 132 129 129 136 142 144 149 146 137 135 133 131 126 122 121
184 197 181 219 231 223 249 249 254 251 109 283 291 52 84 89 84 96 148 163 173 194 180 225 197 136 159 138 81 57 35 94 156 125 130 131 140 138 145 141 128 120 124 127 131 131 139 141 144 149 148 148 149 147 150 149 150 152 149 146 144 143 143 143 145 146 147 145 146 145 145 145 146 144 141 137 134 135 133 130 129 133 133 130 137 141 142 145 142 128 134 133 128 122 112 114 113
256 255 167 222 204 210 229 253 264 255 106 255 5 140 112 86 341 344 151 231 159 212 161 133 189 249 65 234 178 70 111 65 96 116 120 131 144 141 144 135 128 124 121 122 127 125 128 139 149 157 150 147 150 149 148 145 148 152 149 143 141 137 142 147 149 148 149 151 151 150 149 149 149 147 142 139 140 138 135 137 137 138 140 141 144 143 147 148 136 133 134 131 130 124 114 109 103
192 250 104 256 243 213 252 245 260 153 303 211 226 244 343 307 309 286 248 231 119 233 171 175 164 224 127 125 90 104 106 115 113 125 130 135 144 143 143 137 128 125 125 124 123 130 138 135 151 155 150 154 154 149 154 155 150 150 151 150 143 143 147 153 154 152 151 154 153 153 153 152 152 148 144 140 140 138 139 140 143 143 147 150 149 150 150 148 142 138 139 137 134 125 113 104 98
188 247 183 243 268 241 240 226 238 210 238 237 246 234 266 282 275 272 261 212 199 194 140 150 202 273 129 125 128 138 120 123 126 129 139 139 137 140 139 135 127 127 128 126 128 134 136 146 144 153 150 151 154 157 151 146 143 144 152 151 151 154 157 158 155 154 155 152 155 156 153 152 152 148 144 146 140 139 137 140 149 147 149 154 153 155 152 149 149 145 144 141 136 126 119 109 100
206 200 315 243 229 249 239 239 221 167 232 228 227 244 301 285 278 270 251 247 134 211 135 191 169 134 152 127 90 92 122 131 139 134 145 142 134 131 131 130 126 128 130 127 132 127 139 149 156 155 152 153 152 152 142 137 134 141 151 155 161 162 162 160 159 157 156 155 157 155 152 149 148 150 150 150 147 144 134 134 148 151 150 153 154 155 156 152 150 149 146 141 134 125 118 115 112
233 214 182 240 246 248 262 279 141 258 239 246 238 120 67 308 280 263 239 231 201 209 187 202 139 156 135 127 128 132 139 145 129 136 143 139 139 134 129 124 124 125 127 129 131 135 135 141 160 154 151 148 153 148 130 105 81 159 166 156 158 165 162 159 158 160 158 153 153 155 153 151 153 153 153 149 149 146 139 136 144 153 154 148 150 145 147 152 155 152 143 135 127 120 121 122 122
258 220 224 246 259 252 303 270 253 295 275 216 175 85 9 300 270 264 262 260 214 203 198 196 122 197 149 142 115 140 153 139 136 143 144 138 138 138 126 125 126 129 139 137 131 130 138 148 154 166 154 146 154 150 71 67 209 195 147 145 164 159 159 167 169 161 156 156 152 153 157 158 159 156 150 143 143 151 148 138 148 158 152 146 142 147 151 157 155 141 136 129 122 120 120 120 124
245 237 253 247 62 270 262 265 275 252 218 109 74 56 351 306 305 287 275 248 226 217 164 150 166 166 97 113 153 156 154 143 145 149 145 137 141 139 134 129 132 132 142 143 134 135 141 146 145 149 158 158 154 119 92 141 196 185 167 158 160 154 159 183 165 156 160 158 159 157 161 165 161 158 152 149 151 152 148 136 145 157 151 150 150 151 151 145 143 139 149 127 127 124 124 125 122
250 212 255 266 260 237 220 253 267 221 219 129 79 352 328 1 300 261 250 244 216 80 104 155 176 200 164 200 157 166 152 145 151 149 140 142 139 142 135 124 124 135 138 138 140 143 144 143 139 146 149 156 153 145 134 192 162 165 171 180 162 147 176 179 168 179 171 167 163 165 164 170 163 159 153 155 156 151 150 144 144 146 156 154 151 149 149 148 145 136 134 129 128 123 112 94 77
255 221 241 247 242 245 159 239 227 265 122 173 68 339 328 4 229 276 240 257 78 149 176 161 236 291 137 203 156 146 143 144 142 137 139 138 136 133 125 131 136 133 138 141 140 146 148 144 139 145 147 150 148 135 150 165 157 130 164 133 145 171 184 166 157 181 177 192 171 165 165 169 167 163 159 183 167 159 151 191 135 145 151 155 151 154 150 148 141 138 132 128 123 115 102 88 78
231 258 231 231 249 215 164 239 197 221 67 146 48 355 342 333 100 268 313 254 215 170 190 135 155 266 167 97 130 134 142 137 137 141 142 138 136 135 139 135 133 135 146 144 138 146 157 150 148 140 144 145 129 129 144 162 160 171 171 170 134 172 168 181 157 148 185 176 196 169 178 193 175 185 172 186 171 179 167 142 149 138 144 152 154 158 153 140 137 130 128 126 122 117 105 96 80
214 219 236 236 246 227 226 249 244 16 270 348 342 358 341 328 46 145 222 202 217 163 176 123 111 79 88 117 128 135 144 144 147 150 151 144 145 145 147 145 147 148 148 147 152 149 154 150 154 144 139 143 142 142 160 164 152 172 181 181 183 180 176 158 171 188 164 155 239 195 198 193 219 175 176 177 199 159 175 143 150 153 135 139 140 154 150 146 134 130 125 126 128 131 149 180 159
224 229 243 252 215 250 355 345 308 298 308 323 322 340 337 337 299 132 237 186 180 173 177 168 148 120 119 132 133 139 149 151 153 155 154 150 150 151 148 143 154 150 154 155 150 156 161 162 155 158 151 140 145 142 144 159 158 175 174 183 178 200 176 212 189 191 171 202 193 195 203 162 238 171 176 181 184 182 149 148 154 152 145 126 130 127 144 154 136 126 125 126 118 152 195 204 202
220 259 230 240 259 282 289 284 279 286 309 300 317 333 316 2 292 78 252 190 187 188 170 176 169 148 147 138 143 148 153 153 157 156 158 158 158 153 150 153 156 162 157 162 160 159 155 163 167 150 158 156 152 150 156 157 167 167 162 156 168 187 188 195 206 204 191 201 115 232 268 198 220 167 97 162 192 168 144 161 144 137 139 151 137 158 141 137 142 141 135 135 162 189 207 211 213
142 235 246 263 50 279 249 250 263 288 301 302 303 323 308 70 327 264 257 201 202 207 185 185 175 156 147 148 148 154 155 156 158 159 158 161 159 156 161 159 165 161 157 158 161 165 163 160 164 171 167 163 168 160 156 163 159 176 168 171 175 172 184 182 197 203 178 207 156 217 217 179 214 205 154 186 212 157 161 201 179 187 188 187 173 206 190 162 178 165 163 177 193 210 213 217 239
193 235 255 287 269 259 268 270 308 296 302 291 292 291 341 332 247 243 242 226 198 207 150 167 161 157 152 153 155 158 160 157 160 162 161 161 163 160 160 161 155 163 158 172 168 165 167 168 168 154 160 176 165 173 170 150 169 170 169 162 171 174 179 191 208 196 216 214 198 204 275 183 217 198 196 190 192 192 161 198 178 177 196 208 194 211 215 197 196 180 186 190 196 212 213 212 212
241 218 244 247 270 281 306 289 286 295 288 282 292 333 314 292 289 240 238 239 44 42 112 137 157 153 145 148 156 161 163 160 165 164 162 162 161 153 165 162 162 166 173 169 166 165 164 167 162 158 168 161 171 181 166 168 167 159 166 167 179 167 186 189 205 195 200 200 211 190 190 204 210 204 195 197 208 181 188 192 195 179 200 211 199 218 214 210 216 197 197 199 201 202 213 215 203
249 262 135 251 258 260 270 273 277 263 277 280 304 301 284 289 265 163 231 132 54 78 147 126 131 140 146 154 165 160 163 164 164 166 166 160 159 161 162 166 167 168 182 161 169 161 175 166 162 167 157 159 168 184 167 172 169 166 166 152 193 160 195 192 190 197 187 196 196 195 206 213 201 194 202 196 196 194 204 202 210 193 202 212 208 214 220 223 217 210 203 206 205 206 201 215 220
232 247 249 267 268 264 262 271 281 280 271 276 277 271 271 267 314 186 230 143 91 126 145 138 137 145 154 155 164 159 163 164 163 164 164 163 163 156 165 168 172 177 171 172 170 173 172 160 162 166 148 164 149 193 163 167 163 183 175 186 173 168 176 190 173 167 197 192 193 211 208 205 209 206 201 198 194 191 215 215 209 207 210 211 208 220 233 224 222 212 194 201 194 197 210 211 214
218 254 274 264 259 263 277 287 273 266 271 265 251 247 247 239 184 222 143 123 130 123 133 143 145 153 157 159 165 165 166 167 164 165 167 158 161 165 176 179 176 181 179 170 173 170 164 159 165 155 159 156 142 167 142 148 179 189 192 197 180 182 180 171 163 178 176 177 189 216 207 210 209 211 194 188 197 196 196 215 210 206 212 219 219 220 226 234 225 207 203 196 182 201 207 205 223
102 260 260 271 277 282 289 280 271 236 252 225 256 192 153 169 222 140 134 133 139 141 138 147 153 154 159 159 164 167 169 170 169 160 162 168 170 182 181 182 184 179 174 169 170 165 149 165 160 153 147 140 150 166 146 151 182 217 186 187 186 181 150 165 180 200 192 159 180 208 210 217 258 209 176 160 208 210 213 215 218 211 212 216 219 224 217 237 228 214 213 204 194 199 213 202 217
258 275 281 265 253 255 276 249 248 229 193 204 224 182 188 149 233 57 117 148 164 156 149 156 159 157 159 161 165 169 174 171 173 172 175 176 181 185 182 186 182 173 175 166 168 152 156 173 152 153 131 149 207 150 150 151 216 197 186 189 172 122 147 153 165 193 217 130 154 192 199 247 223 316 52 195 198 216 205 207 207 217 226 224 215 224 222 232 230 226 202 199 209 187 194 206 215
273 278 263 243 211 197 185 200 153 225 116 200 233 194 183 185 99 79 118 154 177 173 162 165 162 157 160 162 167 175 179 176 176 181 184 185 183 185 181 181 175 173 166 162 154 152 157 165 144 156 140 149 190 176 140 153 170 172 147 201 129 115 120 95 108 112 66 62 61 25 7 39 47 79 171 192 210 227 222 222 206 212 219 225 226 219 226 225 228 208 183 195 188 187 189 192 215
261 241 272 244 206 172 111 159 157 180 80 267 229 210 177 156 91 96 131 163 184 177 174 168 163 162 163 166 174 178 178 176 180 183 181 186 183 179 177 176 176 171 157 159 152 159 154 155 154 153 149 164 189 175 149 177 133 105 141 129 88 133 144 167 167 173 104 91 73 66 49 86 112 81 237 175 247 283 249 239 236 215 214 217 221 208 221 221 210 200 185 191 180 189 190 185 202
235 150 239 259 212 126 96 104 156 126 103 240 221 250 166 118 105 100 130 183 184 185 179 173 165 167 165 171 177 178 175 181 179 179 178 181 176 176 177 172 173 174 156 157 165 161 156 160 153 149 159 183 173 168 197 140 132 119 143 121 101 53 135 176 146 130 141 163 156 165 210 117 140 144 232 190 180 196 225 232 231 223 197 200 202 205 220 221 214 208 203 191 177 194 195 188 204
222 214 201 175 241 111 99 71 44 151 128 209 241 247 185 110 89 103 141 182 206 201 179 176 171 170 168 171 177 181 175 178 178 175 171 174 176 171 177 175 172 169 161 155 162 163 166 165 157 165 174 188 186 176 180 153 125 153 109 103 115 66 79 127 139 123 120 113 128 130 161 160 163 186 208 235 224 223 238 226 214 223 190 192 205 211 213 213 218 213 206 218 180 194 200 191 212
197 255 119 202 229 116 144 98 92 68 123 147 244 269 205 148 92 107 151 194 205 208 182 179 182 178 179 182 181 182 169 174 174 175 170 175 176 173 177 178 177 173 160 160 163 164 168 168 175 182 179 189 187 173 173 143 147 144 134 93 88 107 97 91 97 120 121 119 125 122 128 130 139 154 170 159 166 180 216 215 202 206 195 195 208 209 212 213 214 214 209 216 208 213 214 205 197
192 236 167 88 252 156 164 119 89 108 264 162 190 252 245 74 150 121 169 214 208 217 192 182 185 186 187 190 186 184 178 174 177 177 174 181 176 174 178 175 176 168 156 166 170 176 177 174 179 182 176 185 177 174 169 158 145 132 138 118 79 94 81 72 81 92 100 106 114 116 125 135 146 147 149 148 144 135 172 201 185 191 194 201 207 209 210 210 214 228 218 217 225 224 213 208 209
176 194 198 181 199 270 27 185 71 317 173 236 156 250 268 113 203 195 178 204 223 216 206 194 194 193 193 197 197 193 187 181 177 175 177 175 175 172 175 169 170 162 161 167 170 178 179 176 177 169 175 167 175 169 139 124 124 132 106 147 140 142 125 97 92 102 92 101 117 118 119 137 141 136 139 151 137 142 145 171 190 179 191 201 206 212 214 210 205 194 234 212 239 246 251 266 277
319 250 252 230 210 182 214 85 58 4 277 220 198 259 231 81 191 170 178 200 218 218 202 213 212 204 203 206 205 202 196 179 171 173 172 174 175 170 179 172 173 170 164 172 177 181 186 177 179 165 169 166 162 166 169 174 176 176 153 161 151 112 109 110 107 99 95 97 90 96 111 141 121 142 127 113 133 151 153 145 147 170 192 189 203 214 207 159 36 203 211 215 218 217 226 241 231
305 256 252 227 259 169 114 86 51 0 291 230 0 263 251 271 75 166 191 192 217 219 211 212 213 215 214 210 211 206 196 181 163 165 167 177 179 169 175 174 173 170 172 176 183 188 188 189 181 177 171 169 175 179 183 184 178 159 158 162 138 141 121 115 103 82 82 73 67 87 95 86 75 73 103 154 145 135 166 163 162 178 174 198 185 243 191 145 188 213 217 219 223 218 219 224 226
245 230 234 218 213 238 97 84 70 60 305 179 175 265 249 232 334 163 168 205 218 216 214 214 218 222 226 225 219 213 197 176 159 167 172 178 184 172 172 178 177 179 184 183 188 187 187 190 187 178 171 175 181 187 177 179 175 171 168 156 144 141 147 153 123 117 96 90 90 78 71 67 65 76 75 89 180 167 171 169 171 189 192 153 118 114 145 161 163 185 197 198 208 213 217 201 206
222 236 216 249 210 217 105 113 138 65 280 258 114 272 263 219 243 156 189 202 219 222 224 222 218 223 229 230 228 222 207 195 177 179 177 183 189 180 179 185 187 192 182 185 186 184 183 187 189 180 179 178 180 184 186 176 159 130 180 123 152 110 68 55 87 91 105 107 93 89 74 69 88 92 88 77 88 111 123 156 153 153 144 135 133 135 136 154 176 186 197 202 180 204 206 167 195
213 214 232 223 73 216 185 147 148 138 300 318 322 283 271 251 225 216 193 203 177 203 233 235 237 233 233 236 231 225 216 208 199 188 184 184 189 187 188 188 188 186 182 182 184 185 182 188 188 183 176 182 179 183 194 157 144 136 108 122 91 93 114 109 102 112 105 109 103 78 78 82 89 92 92 113 91 79 104 102 91 90 97 99 115 116 114 111 143 172 201 194 183 179 189 187 224
203 253 240 244 180 219 293 105 197 131 180 256 269 254 251 232 218 204 178 183 198 203 206 226 234 248 253 256 252 241 234 219 214 197 189 187 190 194 194 191 181 184 187 184 183 184 182 184 186 181 175 180 182 178 179 148 142 148 136 132 129 115 128 141 145 130 128 115 111 104 93 97 104 94 90 74 93 101 90 95 90 90 80 80 94 93 86 97 125 135 144 170 195 214 168 157 157
188 208 245 263 226 267 214 264 255 227 205 151 293 276 258 170 217 228 154 181 203 195 213 210 211 217 227 237 240 240 240 242 231 214 201 195 196 194 194 189 187 188 189 187 183 183 179 182 181 178 176 179 182 180 178 172 174 168 162 164 162 159 150 160 159 142 146 147 111 109 110 105 92 94 93 86 78 95 110 113 116 111 102 97 82 76 88 92 106 107 80 71 73 99 212 186 156
234 184 203 223 242 226 229 228 232 237 250 127 279 277 283 162 201 177 184 195 191 164 195 200 209 213 216 227 231 233 237 233 234 234 220 205 199 195 193 193 191 190 190 179 179 181 181 180 178 178 179 178 181 181 180 183 184 183 179 177 167 161 150 141 119 131 130 116 121 122 112 114 112 105 91 91 95 94 97 106 111 104 112 112 94 87 79 59 60 57 52 60 110 96 14 16 135
227 94 187 208 207 208 214 246 240 276 352 214 226 254 275 267 233 145 167 208 198 176 158 173 190 206 227 231 235 236 239 238 237 234 230 223 208 201 197 192 190 193 181 176 177 176 179 180 177 180 182 181 178 179 183 190 190 188 186 185 167 165 151 133 141 135 124 126 126 133 131 130 127 112 109 104 108 104 107 110 108 105 106 107 111 101 97 84 86 82 69 68 46 46 120 100 41
40 54 177 204 208 201 222 235 256 291 303 272 202 207 249 247 213 154 181 216 206 208 161 159 166 187 206 241 263 272 266 262 253 244 233 225 218 211 203 193 193 186 181 180 180 175 175 177 177 181 186 182 176 179 185 191 199 191 190 184 173 160 144 142 149 146 143 136 134 130 128 122 116 111 103 107 102 105 105 96 96 94 86 92 101 98 90 85 76 71 75 69 65 69 54 56 145
101 143 162 160 181 203 238 252 251 210 249 261 255 188 272 267 213 211 172 243 212 185 167 166 135 154 150 264 290 280 276 273 265 258 256 239 222 216 206 197 186 186 184 177 176 171 174 174 180 185 188 185 178 179 188 191 199 195 196 190 177 163 157 150 161 149 151 154 141 138 136 139 131 128 121 109 114 111 107 109 105 99 93 77 73 85 94 94 90 88 79 79 83 88 78 63 52
125 186 181 186 196 209 214 254 274 268 244 252 194 170 267 276 244 225 220 42 24 50 171 111 56 16 4 11 316 326 315 298 281 270 255 245 236 222 205 196 185 177 176 173 175 176 174 177 182 186 186 187 182 183 188 194 197 198 199 193 184 172 165 164 166 162 160 167 155 152 152 140 144 134 130 124 120 121 119 112 110 109 105 104 103 107 101 102 102 100 94 91 85 87 91 94 88
196 202 220 221 209 204 237 225 218 249 256 139 125 197 204 253 218 184 86 91 52 340 322 339 340 344 345 345 339 335 331 319 306 282 265 237 214 205 198 192 181 177 171 173 176 177 177 180 181 184 188 191 184 183 188 194 197 201 205 198 190 180 170 172 180 174 172 172 165 160 154 150 149 145 146 136 137 133 130 123 121 119 116 117 113 108 114 110 111 110 109 106 102 98 101 98 96
222 227 232 243 237 228 243 226 228 226 252 114 104 163 222 231 271 108 122 109 88 52 339 336 329 332 340 334 339 337 335 332 317 308 283 245 212 192 185 190 185 182 180 180 179 178 180 182 182 187 191 191 186 184 188 193 198 202 204 203 197 185 181 180 182 181 180 181 175 173 164 167 159 162 161 154 148 152 142 141 140 129 124 122 116 114 108 112 112 111 109 113 111 109 103 106 104
218 230 227 237 248 235 249 256 261 275 209 113 144 150 254 285 178 78 107 86 78 73 35 348 346 338 337 338 344 350 353 359 341 331 316 230 200 194 189 187 188 187 184 181 179 179 179 183 185 193 193 190 187 188 190 195 201 204 206 208 201 193 188 184 188 188 184 193 183 177 181 177 173 173 166 165 158 164 159 147 139 130 125 126 126 120 118 121 122 120 121 114 113 108 110 113 112
224 251 251 246 261 260 257 245 247 236 265 102 128 219 235 232 82 75 89 100 110 122 95 81 9 356 351 352 1 7 11 22 5 16 19 64 166 170 176 179 177 181 181 178 178 181 179 182 186 193 192 189 191 189 192 198 201 204 207 209 207 203 195 190 194 193 188 193 190 180 188 184 181 177 172 165 163 170 157 150 142 139 138 133 132 130 126 123 122 115 112 112 106 107 111 105 102
223 236 266 254 246 253 263 331 310 321 302 208 160 254 226 298 121 120 137 132 128 129 116 106 80 45 30 29 25 18 25 28 24 33 49 50 112 135 143 154 158 167 173 173 178 181 183 185 188 194 195 188 189 189 196 199 203 203 207 209 209 206 205 200 197 194 188 191 191 189 187 187 189 176 171 163 170 171 164 156 155 150 147 145 141 141 143 132 129 125 117 117 110 112 115 115 108
126 231 229 255 341 262 271 170 81 332 262 268 262 228 236 137 171 146 149 149 141 142 130 112 87 71 57 46 28 27 31 32 32 38 48 60 81 113 126 143 157 162 167 172 177 183 186 186 190 192 194 191 190 195 196 199 203 206 208 211 210 208 207 207 201 186 183 184 190 195 195 189 183 179 170 167 172 173 172 168 163 157 157 154 151 148 144 138 143 135 125 129 128 127 124 109 98
226 240 238 113 274 296 249 269 186 225 255 255 226 236 253 235 250 156 164 172 159 151 140 118 102 95 77 53 38 32 32 36 45 55 56 53 59 68 81 106 133 158 167 173 181 180 186 191 192 187 193 195 192 197 199 200 203 209 211 213 215 216 214 211 210 194 186 185 189 194 197 190 185 178 172 170 174 174 175 175 170 167 164 161 158 153 149 146 148 132 132 134 122 126 129 123 115
264 300 52 245 215 224 208 257 254 251 251 262 239 233 249 244 230 152 175 184 167 157 145 140 122 94 77 61 46 39 35 36 42 52 53 50 54 62 60 76 78 89 106 133 161 176 190 199 202 203 204 207 203 200 202 205 208 213 216 215 214 215 219 220 212 205 196 194 191 194 193 194 185 180 175 173 178 177 179 179 178 174 169 167 165 160 157 158 156 140 146 138 145 152 129 120 106
237 263 247 225 278 258 251 227 267 267 268 260 254 246 252 243 252 199 188 185 170 155 159 136 109 86 70 57 38 38 37 36 43 51 57 62 56 54 58 63 83 88 92 98 109 124 160 187 197 206 213 213 215 213 207 212 213 220 224 222 220 220 221 222 219 209 205 203 199 194 192 191 189 186 183 178 183 183 182 182 182 179 176 174 171 167 173 160 165 155 158 147 140 149 142 140 136
191 216 236 201 235 4 293 263 251 257 265 265 279 271 257 281 351 248 199 178 163 162 151 131 114 92 79 61 49 44 44 42 45 55 63 65 71 74 71 65 65 64 63 78 87 92 85 88 165 219 218 227 223 222 220 219 219 225 231 229 229 229 229 227 225 219 220 214 207 202 198 193 188 191 186 185 188 188 187 186 184 183 182 179 175 174 174 172 170 162 154 143 151 153 152 140 140
305 279 255 248 250 238 239 252 229 247 260 257 262 266 273 60 346 215 167 150 150 149 142 132 119 106 92 81 64 57 58 50 50 56 61 67 73 76 78 78 75 77 69 58 59 62 67 65 68 79 146 242 242 235 235 235 230 229 228 232 237 241 241 237 231 224 221 221 213 209 202 196 195 192 190 191 193 190 191 189 189 188 186 184 182 179 178 181 175 164 156 155 159 159 152 139 149